UAL312 KEWR-KROC

Flight info

Callsign UAL312
Flight time 0h 44m
Altitude 28000
Route NEION Q232 CORDS GIBBE
Aircraft A320/M-VGDW/C

Departure

Time 2026-05-09 14:55
Airport Newark Liberty International Airport (KEWR)

Arrival

Time 2026-05-09 15:39
Airport Frederick Douglass Greater Rochester International Airport (KROC)
Time Latitude Longitude Altitude Speed Heading
2026-05-09 14:31 40.68303 -74.18411 22 ft 0 kts
2026-05-09 14:33 40.68302 -74.18411 22 ft 0 kts
2026-05-09 14:44 40.68290 -74.18412 22 ft 4 kts
2026-05-09 14:44 40.68263 -74.18415 22 ft 4 kts
2026-05-09 14:44 40.68245 -74.18424 24 ft 4 kts 91°
2026-05-09 14:45 40.68247 -74.18452 23 ft 4 kts 95°
2026-05-09 14:45 40.68248 -74.18467 22 ft 0 kts 95°
2026-05-09 14:46 40.68248 -74.18466 22 ft 1 kts 95°
2026-05-09 14:46 40.68247 -74.18452 22 ft 3 kts 95°
2026-05-09 14:47 40.68245 -74.18418 22 ft 5 kts 95°
2026-05-09 14:47 40.68242 -74.18366 24 ft 7 kts 95°
2026-05-09 14:47 40.68237 -74.18295 22 ft 9 kts 95°
2026-05-09 14:47 40.68232 -74.18204 22 ft 11 kts 90°
2026-05-09 14:48 40.68238 -74.18096 22 ft 12 kts 93°
2026-05-09 14:48 40.68226 -74.17976 23 ft 14 kts 107°
2026-05-09 14:48 40.68185 -74.17861 22 ft 13 kts 116°
2026-05-09 14:48 40.68151 -74.17766 22 ft 10 kts 111°
2026-05-09 14:49 40.68178 -74.17698 23 ft 10 kts 30°
2026-05-09 14:49 40.68247 -74.17655 22 ft 12 kts 25°
2026-05-09 14:49 40.68327 -74.17604 23 ft 14 kts 26°
2026-05-09 14:49 40.68417 -74.17546 23 ft 15 kts 26°
2026-05-09 14:50 40.68518 -74.17482 23 ft 17 kts 26°
2026-05-09 14:50 40.68631 -74.17410 24 ft 19 kts 26°
2026-05-09 14:50 40.68756 -74.17331 23 ft 21 kts 25°
2026-05-09 14:50 40.68897 -74.17241 25 ft 24 kts 26°
2026-05-09 14:51 40.69052 -74.17143 21 ft 25 kts 27°
2026-05-09 14:51 40.69166 -74.17070 22 ft 12 kts 26°
2026-05-09 14:51 40.69244 -74.17020 24 ft 14 kts 26°
2026-05-09 14:51 40.69335 -74.16962 22 ft 15 kts 26°
2026-05-09 14:52 40.69436 -74.16898 23 ft 17 kts 26°
2026-05-09 14:52 40.69550 -74.16826 22 ft 19 kts 26°
2026-05-09 14:52 40.69663 -74.16756 22 ft 13 kts 25°
2026-05-09 14:52 40.69746 -74.16702 21 ft 14 kts 26°
2026-05-09 14:53 40.69841 -74.16642 22 ft 15 kts 25°
2026-05-09 14:53 40.69900 -74.16604 22 ft 9 kts 26°
2026-05-09 14:53 40.69964 -74.16564 23 ft 11 kts 25°
2026-05-09 14:53 40.70039 -74.16517 22 ft 7 kts 26°
2026-05-09 14:54 40.70063 -74.16488 21 ft 5 kts 60°
2026-05-09 14:54 40.70059 -74.16430 20 ft 8 kts 101°
2026-05-09 14:54 40.70021 -74.16373 21 ft 10 kts 177°
2026-05-09 14:54 40.69938 -74.16422 19 ft 25 kts 206°
2026-05-09 14:55 40.69568 -74.16655 23 ft 90 kts 206°
2026-05-09 14:55 40.68841 -74.17117 23 ft 140 kts 206°
2026-05-09 14:55 40.67857 -74.17744 211 ft 162 kts 205°
2026-05-09 14:55 40.66835 -74.18270 892 ft 157 kts 188°
2026-05-09 14:56 40.65741 -74.18349 1532 ft 157 kts 179°
2026-05-09 14:56 40.64602 -74.18309 1978 ft 174 kts 178°
2026-05-09 14:56 40.63332 -74.18505 2292 ft 196 kts 200°
2026-05-09 14:56 40.62022 -74.19283 2474 ft 217 kts 207°
2026-05-09 14:57 40.60716 -74.20480 2512 ft 238 kts 230°
2026-05-09 14:57 40.60047 -74.22452 2825 ft 248 kts 262°
2026-05-09 14:57 40.60308 -74.24700 3786 ft 259 kts 289°
2026-05-09 14:57 40.61423 -74.26631 4694 ft 274 kts 317°
2026-05-09 14:58 40.63166 -74.27743 5557 ft 287 kts 342°
2026-05-09 14:58 40.65146 -74.28245 6410 ft 292 kts 347°
2026-05-09 14:58 40.67164 -74.28663 7252 ft 295 kts 347°
2026-05-09 14:58 40.69210 -74.29075 8072 ft 299 kts 347°
2026-05-09 14:59 40.71283 -74.29480 8861 ft 303 kts 347°
2026-05-09 14:59 40.73383 -74.29883 9609 ft 308 kts 347°
2026-05-09 14:59 40.75479 -74.30436 9914 ft 305 kts 339°
2026-05-09 14:59 40.77511 -74.31223 10001 ft 302 kts 338°
2026-05-09 15:00 40.79497 -74.32082 10042 ft 300 kts 332°
2026-05-09 15:00 40.81486 -74.33213 10260 ft 323 kts 330°
2026-05-09 15:00 40.83607 -74.34483 10433 ft 346 kts 330°
2026-05-09 15:00 40.85819 -74.35825 10957 ft 355 kts 330°
2026-05-09 15:01 40.90333 -74.38547 12416 ft 356 kts 329°
2026-05-09 15:01 40.92579 -74.39891 13127 ft 356 kts 329°
2026-05-09 15:01 40.94861 -74.41252 13791 ft 358 kts 329°
2026-05-09 15:02 40.97142 -74.42611 14413 ft 361 kts 329°
2026-05-09 15:02 40.99444 -74.43988 15023 ft 364 kts 329°
2026-05-09 15:02 41.01764 -74.45384 15611 ft 367 kts 329°
2026-05-09 15:02 41.04097 -74.46793 16172 ft 370 kts 329°
2026-05-09 15:03 41.06447 -74.48210 16741 ft 372 kts 329°
2026-05-09 15:03 41.08815 -74.49637 17181 ft 377 kts 329°
2026-05-09 15:03 41.11222 -74.51087 17648 ft 382 kts 329°
2026-05-09 15:03 41.13658 -74.52557 18201 ft 386 kts 329°
2026-05-09 15:04 41.16108 -74.54044 18773 ft 389 kts 329°
2026-05-09 15:04 41.18576 -74.55544 19334 ft 392 kts 329°
2026-05-09 15:06 41.31847 -74.72784 22830 ft 389 kts 302°
2026-05-09 15:06 41.33563 -74.75578 23267 ft 391 kts 302°
2026-05-09 15:06 41.35292 -74.78388 23680 ft 394 kts 302°
2026-05-09 15:06 41.37028 -74.81215 24094 ft 396 kts 302°
2026-05-09 15:07 41.38754 -74.84028 24481 ft 397 kts 302°
2026-05-09 15:07 41.40505 -74.86887 24868 ft 399 kts 302°
2026-05-09 15:07 41.42259 -74.89760 25244 ft 400 kts 302°
2026-05-09 15:07 41.44018 -74.92647 25586 ft 402 kts 302°
2026-05-09 15:08 41.45786 -74.95558 25941 ft 404 kts 302°
2026-05-09 15:08 41.49340 -75.01408 26642 ft 408 kts 302°
2026-05-09 15:08 41.51126 -75.04351 26998 ft 409 kts 302°
2026-05-09 15:09 41.52916 -75.07301 27422 ft 408 kts 302°
2026-05-09 15:10 41.65142 -75.29353 27960 ft 432 kts 298°
2026-05-09 15:11 41.66873 -75.32693 27961 ft 432 kts 298°
2026-05-09 15:11 41.68599 -75.35988 27953 ft 432 kts 298°
2026-05-09 15:11 41.70335 -75.39273 27952 ft 432 kts 298°
2026-05-09 15:11 41.72073 -75.42557 27936 ft 432 kts 298°
2026-05-09 15:12 41.73811 -75.45844 27932 ft 432 kts 298°
2026-05-09 15:12 41.75521 -75.49095 27936 ft 433 kts 298°
2026-05-09 15:12 41.77275 -75.52438 27930 ft 433 kts 298°
2026-05-09 15:12 41.78978 -75.55689 27939 ft 433 kts 298°
2026-05-09 15:13 41.80735 -75.59040 27928 ft 433 kts 298°
2026-05-09 15:13 41.82466 -75.62340 27932 ft 433 kts 298°
2026-05-09 15:13 41.84170 -75.65589 27932 ft 432 kts 298°
2026-05-09 15:13 41.85890 -75.68886 27928 ft 431 kts 298°
2026-05-09 15:14 41.87606 -75.72188 27916 ft 432 kts 298°
2026-05-09 15:14 41.89326 -75.75496 27909 ft 432 kts 297°
2026-05-09 15:14 41.91048 -75.78802 27922 ft 432 kts 297°
2026-05-09 15:14 41.92769 -75.82115 27906 ft 432 kts 297°
2026-05-09 15:15 41.94489 -75.85429 27907 ft 432 kts 297°
2026-05-09 15:15 41.95648 -75.87661 27903 ft 432 kts 297°
2026-05-09 15:15 41.97367 -75.90976 27911 ft 432 kts 297°
2026-05-09 15:15 41.99081 -75.94283 27901 ft 432 kts 297°
2026-05-09 15:16 42.00793 -75.97590 27901 ft 432 kts 297°
2026-05-09 15:16 42.02511 -76.00915 27901 ft 432 kts 297°
2026-05-09 15:16 42.04225 -76.04245 27892 ft 432 kts 297°
2026-05-09 15:16 42.05931 -76.07564 27889 ft 432 kts 297°
2026-05-09 15:17 42.07639 -76.10884 27889 ft 431 kts 297°
2026-05-09 15:17 42.09349 -76.14209 27888 ft 431 kts 297°
2026-05-09 15:17 42.11058 -76.17528 27889 ft 431 kts 297°
2026-05-09 15:17 42.12766 -76.20847 27888 ft 431 kts 297°
2026-05-09 15:18 42.14471 -76.24172 27887 ft 431 kts 297°
2026-05-09 15:18 42.16175 -76.27502 27887 ft 431 kts 297°
2026-05-09 15:18 42.17878 -76.30834 27884 ft 432 kts 297°
2026-05-09 15:18 42.19582 -76.34175 27881 ft 432 kts 297°
2026-05-09 15:19 42.21257 -76.37460 27782 ft 425 kts 297°
2026-05-09 15:19 42.22932 -76.40728 27526 ft 412 kts 297°
2026-05-09 15:19 42.24530 -76.43847 27273 ft 408 kts 297°
2026-05-09 15:19 42.26152 -76.47033 27126 ft 406 kts 297°
2026-05-09 15:20 42.27741 -76.50169 26779 ft 404 kts 297°
2026-05-09 15:20 42.30896 -76.56405 26025 ft 401 kts 297°
2026-05-09 15:20 42.32465 -76.59508 25647 ft 399 kts 297°
2026-05-09 15:21 42.34028 -76.62599 25271 ft 397 kts 297°
2026-05-09 15:21 42.35562 -76.65627 24901 ft 396 kts 297°
2026-05-09 15:21 42.37115 -76.68697 24525 ft 394 kts 297°
2026-05-09 15:21 42.38658 -76.71749 24149 ft 393 kts 297°
2026-05-09 15:22 42.40199 -76.74804 23771 ft 391 kts 297°
2026-05-09 15:22 42.41727 -76.77841 23395 ft 389 kts 297°
2026-05-09 15:22 42.43245 -76.80860 23015 ft 387 kts 297°
2026-05-09 15:22 42.44759 -76.83873 22643 ft 385 kts 297°
2026-05-09 15:23 42.46256 -76.86855 22130 ft 381 kts 298°
2026-05-09 15:23 42.47738 -76.89816 21880 ft 380 kts 298°
2026-05-09 15:23 42.49220 -76.92783 21854 ft 381 kts 298°
2026-05-09 15:23 42.50708 -76.95766 21856 ft 382 kts 298°
2026-05-09 15:24 42.52217 -76.98732 21861 ft 384 kts 301°
2026-05-09 15:24 42.54036 -77.01439 21704 ft 393 kts 311°
2026-05-09 15:24 42.56122 -77.03905 20690 ft 401 kts 313°
2026-05-09 15:24 42.58240 -77.06330 19786 ft 405 kts 314°
2026-05-09 15:25 42.60402 -77.08770 19134 ft 401 kts 315°
2026-05-09 15:25 42.62549 -77.11183 18422 ft 399 kts 315°
2026-05-09 15:25 42.64659 -77.13565 17664 ft 390 kts 315°
2026-05-09 15:26 42.68716 -77.18187 16017 ft 368 kts 315°
2026-05-09 15:26 42.70668 -77.20428 15282 ft 368 kts 315°
2026-05-09 15:26 42.72626 -77.22690 14532 ft 371 kts 315°
2026-05-09 15:26 42.74602 -77.24974 13773 ft 373 kts 315°
2026-05-09 15:27 42.76582 -77.27262 13134 ft 371 kts 316°
2026-05-09 15:27 42.78547 -77.29526 12374 ft 372 kts 316°
2026-05-09 15:27 42.80502 -77.31780 11965 ft 363 kts 316°
2026-05-09 15:27 42.82417 -77.33985 11459 ft 357 kts 316°
2026-05-09 15:28 42.84295 -77.36149 11079 ft 349 kts 316°
2026-05-09 15:28 42.86104 -77.38238 10986 ft 332 kts 316°
2026-05-09 15:28 42.87819 -77.40222 11005 ft 315 kts 316°
2026-05-09 15:28 42.89442 -77.42106 11005 ft 299 kts 315°
2026-05-09 15:29 42.90991 -77.43902 11005 ft 285 kts 315°
2026-05-09 15:29 42.92462 -77.45606 11004 ft 270 kts 315°
2026-05-09 15:29 42.93870 -77.47203 11004 ft 257 kts 316°
2026-05-09 15:29 42.95227 -77.48702 11005 ft 246 kts 316°
2026-05-09 15:30 42.96553 -77.50154 11006 ft 243 kts 316°
2026-05-09 15:30 42.97870 -77.51598 11006 ft 242 kts 316°
2026-05-09 15:30 42.99175 -77.53037 10770 ft 241 kts 316°
2026-05-09 15:30 43.00476 -77.54477 10450 ft 241 kts 316°
2026-05-09 15:31 43.01776 -77.55921 10123 ft 241 kts 316°
2026-05-09 15:31 43.03093 -77.57351 9794 ft 243 kts 322°
2026-05-09 15:31 43.04695 -77.58125 9399 ft 250 kts 354°
2026-05-09 15:31 43.06408 -77.57713 8851 ft 255 kts 22°
2026-05-09 15:32 43.07986 -77.56638 8300 ft 257 kts 28°
2026-05-09 15:32 43.09548 -77.55452 7851 ft 256 kts 29°
2026-05-09 15:32 43.11096 -77.54265 7414 ft 254 kts 29°
2026-05-09 15:32 43.12633 -77.53086 6983 ft 252 kts 29°
2026-05-09 15:33 43.14156 -77.51923 6557 ft 250 kts 29°
2026-05-09 15:33 43.15668 -77.50772 6128 ft 247 kts 29°
2026-05-09 15:33 43.17154 -77.49647 5877 ft 237 kts 28°
2026-05-09 15:33 43.18565 -77.48580 5608 ft 227 kts 29°
2026-05-09 15:34 43.19943 -77.47545 5139 ft 226 kts 29°
2026-05-09 15:34 43.21378 -77.46731 4687 ft 222 kts
2026-05-09 15:34 43.22856 -77.47029 4248 ft 214 kts 330°
2026-05-09 15:34 43.23930 -77.48352 3764 ft 208 kts 303°
2026-05-09 15:35 43.24735 -77.49999 3268 ft 207 kts 298°
2026-05-09 15:35 43.25172 -77.51820 2786 ft 200 kts 266°
2026-05-09 15:35 43.24797 -77.53597 2513 ft 190 kts 242°
2026-05-09 15:35 43.24190 -77.55171 2506 ft 185 kts 239°
2026-05-09 15:36 43.23551 -77.56682 2504 ft 182 kts 233°
2026-05-09 15:36 43.22786 -77.58054 2506 ft 181 kts 229°
2026-05-09 15:36 43.21917 -77.59287 2507 ft 180 kts 214°
2026-05-09 15:36 43.20876 -77.60183 2416 ft 170 kts 211°
2026-05-09 15:37 43.19942 -77.60971 2246 ft 148 kts 211°
2026-05-09 15:37 43.19088 -77.61691 2076 ft 141 kts 212°
2026-05-09 15:37 43.18265 -77.62386 1884 ft 138 kts 212°
2026-05-09 15:37 43.17450 -77.63073 1715 ft 137 kts 212°
2026-05-09 15:38 43.16639 -77.63758 1536 ft 137 kts 213°
2026-05-09 15:38 43.15827 -77.64442 1356 ft 137 kts 212°
2026-05-09 15:38 43.15017 -77.65124 1171 ft 137 kts 212°
2026-05-09 15:38 43.14209 -77.65805 989 ft 136 kts 212°
2026-05-09 15:39 43.13400 -77.66486 813 ft 137 kts 212°
2026-05-09 15:39 43.12588 -77.67170 628 ft 137 kts 213°
2026-05-09 15:39 43.11827 -77.67817 550 ft 103 kts 211°
2026-05-09 15:39 43.11449 -77.68135 551 ft 42 kts 212°
2026-05-09 15:40 43.11233 -77.68315 552 ft 29 kts 208°
2026-05-09 15:40 43.11102 -77.68353 559 ft 12 kts 164°
2026-05-09 15:40 43.11094 -77.68254 550 ft 14 kts 39°
2026-05-09 15:40 43.11184 -77.68177 554 ft 16 kts 31°
2026-05-09 15:41 43.11288 -77.68090 552 ft 19 kts 32°
2026-05-09 15:41 43.11405 -77.67990 550 ft 21 kts 31°
2026-05-09 15:41 43.11536 -77.67881 550 ft 23 kts 31°
2026-05-09 15:41 43.11680 -77.67761 550 ft 25 kts 31°
2026-05-09 15:42 43.11834 -77.67631 552 ft 27 kts 32°
2026-05-09 15:42 43.12001 -77.67490 550 ft 29 kts 31°
2026-05-09 15:42 43.12164 -77.67354 553 ft 26 kts 32°
2026-05-09 15:42 43.12325 -77.67217 550 ft 28 kts 31°
2026-05-09 15:43 43.12451 -77.67113 555 ft 13 kts 31°
2026-05-09 15:43 43.12508 -77.67023 550 ft 11 kts 83°
2026-05-09 15:43 43.12512 -77.66921 550 ft 10 kts 86°
2026-05-09 15:43 43.12546 -77.66851 556 ft 10 kts 25°
2026-05-09 15:44 43.12610 -77.66851 550 ft 9 kts 353°
2026-05-09 15:44 43.12667 -77.66835 555 ft 7 kts 28°
2026-05-09 15:44 43.12687 -77.66812 556 ft 2 kts 52°
2026-05-09 15:44 43.12687 -77.66800 550 ft 1 kts 90°
2026-05-09 15:45 43.12683 -77.66784 550 ft 2 kts 112°
2026-05-09 15:45 43.12676 -77.66766 550 ft 2 kts 121°
2026-05-09 15:45 43.12667 -77.66746 550 ft 3 kts 120°
2026-05-09 15:45 43.12663 -77.66735 550 ft 1 kts 120°
2026-05-09 15:46 43.12662 -77.66733 550 ft 0 kts 120°